Location: Yellowknife
(62.4500°N, 114.3500°W)
Time: 15:28:09
(UTC-07:00)

Amateur Radio Satellites - All Passes

Search period start: 20 January 2018 14:58
Search period end: 21 January 2018 14:58
Location: Yellowknife, 62.4500°N, 114.3500°W

Satellite Date Start Highest point End Downlink Frequencies (MHz)
Time Altitude Azimuth
LilacSat-2 20 Jan 15:00:26 15:01:51 12° 40° (NE) 15:03:16 437.200
LO-87 20 Jan 15:02:11 15:02:17 10° 321° (NW) 15:02:23 145.935 - 145.965
XW-2C 20 Jan 15:03:17 15:04:38 12° 40° (NE) 15:05:58 145.795 - 145.815
CUTE-I 20 Jan 15:07:05 15:10:53 20° 36° (NE) 15:14:42 437.470
50 SAT 20 Jan 15:08:47 15:11:56 81° 106° (ESE) 15:15:04 437.505
RS-15 20 Jan 15:13:50 15:26:02 89° 30° (NNE) 15:37:35 29.354- 29.394
ITAMSAT 1 20 Jan 15:14:28 15:19:39 76° 252° (WSW) 15:24:52 435.822/435.867
BEESAT 3 20 Jan 15:22:45 15:26:45 63° 9° (N) 15:30:41 437.485
AO-7 20 Jan 15:23:50 15:32:01 55° 256° (WSW) 15:40:16 .
ITUPSAT 1 20 Jan 15:26:26 15:30:23 24° 90° (E) 15:34:18 437.325
CUTE 1.7 + AOD 2 20 Jan 15:27:33 15:28:34 11° 33° (NNE) 15:29:35 437.475
DOVE 4 20 Jan 15:29:05 15:33:08 49° 63° (ENE) 15:37:10 437.250
CUBEBUG 2 20 Jan 15:35:05 15:36:36 12° 29° (NNE) 15:38:08 437.445
Gurwin Techsat 1B 20 Jan 15:35:50 15:38:09 13° 284° (WNW) 15:40:29 435.225
KAITUO 1B 20 Jan 15:38:00 15:40:07 15° 45° (NE) 15:42:14 145.475/437.950
XW-2F 20 Jan 15:38:33 15:41:02 17° 48° (NE) 15:43:32 145.980 - 146.000
UWE-3 20 Jan 15:42:56 15:43:04 10° 26° (NNE) 15:43:11 435.000/436.395/437.385
SO-50 20 Jan 15:44:07 15:44:57 10° 248° (WSW) 15:45:47 436.795
AO-85 20 Jan 15:45:14 15:49:34 79° 343° (NNW) 15:54:17 145.980
XW-2D 20 Jan 15:47:26 15:50:16 20° 51° (NE) 15:53:07 145.860 - 145.880
M-CUBED/EXP-1 PRIME 20 Jan 15:48:04 15:52:13 70° 246° (WSW) 15:56:05 437.505
VELOX 1 20 Jan 15:48:51 15:52:27 25° 311° (NW) 15:56:02 145.980
ESTCUBE 1 20 Jan 15:48:54 15:50:29 12° 330° (NNW) 15:52:04 437.505/2401.250
SPROUT 20 Jan 15:49:23 15:52:18 18° 316° (NW) 15:55:12 437.525
NUDT-PHONESAT 20 Jan 15:49:23 15:51:45 16° 47° (NE) 15:54:06 437.300
HO-68 20 Jan 15:53:34 15:59:49 34° 38° (NE) 16:06:06 435.675
UKube-1 20 Jan 15:54:38 15:58:58 74° 293° (WNW) 16:03:15 .
MOZHAYETS 4 20 Jan 16:01:04 16:05:42 59° 103° (ESE) 16:10:17
CUBESAT XI-V 20 Jan 16:03:13 16:07:08 26° 90° (E) 16:11:02 437.345
XW-2B 20 Jan 16:04:37 16:07:45 25° 54° (NE) 16:10:54 145.730 - 145.750
DX 1 20 Jan 16:05:48 16:09:59 46° 300° (WNW) 16:14:08 434.975-435.025
BEESAT 20 Jan 16:06:11 16:10:48 43° 99° (E) 16:15:22 436.000
BEESAT 2 20 Jan 16:09:38 16:13:41 62° 6° (N) 16:17:42 435.950
LilacSat-2 20 Jan 16:31:38 16:35:15 39° 61° (ENE) 16:38:51 437.200
AAUSAT CUBESAT 2 20 Jan 16:33:29 16:34:51 11° 36° (NE) 16:36:13 437.432
XW-2C 20 Jan 16:34:21 16:37:55 38° 61° (ENE) 16:41:30 145.795 - 145.815
PCSat 20 Jan 16:40:49 16:46:16 67° 22° (NNE) 16:51:42 145.827
50 SAT 20 Jan 16:41:08 16:43:18 17° 308° (NW) 16:45:27 437.505
CUTE-I 20 Jan 16:44:53 16:50:02 53° 59° (ENE) 16:55:13 437.470
Oscar 11 20 Jan 16:47:36 16:48:03 10° 30° (NNE) 16:48:29 .
SEEDS 20 Jan 16:48:31 16:51:37 20° 48° (NE) 16:54:43 437.485
ITAMSAT 1 20 Jan 16:56:09 17:00:00 21° 274° (W) 17:03:51 435.822/435.867
CUTE 1.7 + AOD 2 20 Jan 16:59:33 17:03:16 30° 55° (NE) 17:07:00 437.475
BEESAT 3 20 Jan 17:00:25 17:04:23 70° 211° (SSW) 17:08:18 437.485
ITUPSAT 1 20 Jan 17:03:57 17:08:49 86° 291° (WNW) 17:13:40 437.325
DOVE 4 20 Jan 17:07:14 17:11:04 34° 265° (W) 17:14:52 437.250
CUBEBUG 2 20 Jan 17:08:03 17:11:56 29° 52° (NE) 17:15:56 437.445
KAITUO 1B 20 Jan 17:09:43 17:13:24 55° 67° (ENE) 17:17:06 145.475/437.950
XW-2F 20 Jan 17:10:46 17:14:35 68° 68° (ENE) 17:18:22 145.980 - 146.000
UWE-3 20 Jan 17:14:29 17:18:06 24° 48° (NE) 17:21:49 435.000/436.395/437.385
XW-2D 20 Jan 17:20:10 17:24:00 87° 75° (ENE) 17:27:51 145.860 - 145.880
AO-7 20 Jan 17:21:11 17:26:54 20° 282° (WNW) 17:32:39 .
NUDT-PHONESAT 20 Jan 17:21:16 17:24:59 66° 68° (ENE) 17:28:42 437.300
M-CUBED/EXP-1 PRIME 20 Jan 17:24:45 17:27:14 15° 265° (W) 17:29:37 437.505
AO-85 20 Jan 17:25:51 17:30:19 66° 6° (N) 17:35:10 145.980
RS-15 20 Jan 17:26:31 17:37:57 55° 234° (SW) 17:48:49 29.354- 29.394
VELOX 1 20 Jan 17:27:15 17:27:37 10° 333° (NNW) 17:28:00 145.980
UKube-1 20 Jan 17:31:12 17:34:26 21° 314° (NW) 17:37:39 .
KKS-1 20 Jan 17:32:36 17:36:29 28° 93° (E) 17:40:21 437.445
XW-2B 20 Jan 17:37:48 17:41:38 71° 254° (WSW) 17:45:28 145.730 - 145.750
MOZHAYETS 4 20 Jan 17:38:28 17:42:43 36° 304° (NW) 17:46:57
ZACube-1 20 Jan 17:38:56 17:42:31 23° 48° (NE) 17:46:08 437.345
HO-68 20 Jan 17:39:42 17:46:51 77° 61° (ENE) 17:54:02 435.675
CUBESAT XI-V 20 Jan 17:40:20 17:45:01 75° 292° (WNW) 17:49:37 437.345
DX 1 20 Jan 17:42:46 17:45:19 15° 322° (NW) 17:47:52 434.975-435.025
BEESAT 20 Jan 17:44:03 17:48:42 50° 301° (WNW) 17:53:20 436.000
AO-73 20 Jan 17:45:51 17:49:27 24° 48° (NE) 17:53:05 145.935
BEESAT 2 20 Jan 17:47:30 17:51:34 75° 210° (SSW) 17:55:35 435.950
XW-2A 20 Jan 17:47:37 17:50:10 20° 53° (NE) 17:52:43 145.665 - 145.685
STARS 20 Jan 17:49:38 17:52:58 21° 88° (E) 17:56:18 437.465
AAUSAT CUBESAT 2 20 Jan 18:05:33 18:09:18 34° 58° (ENE) 18:13:03 437.432
LilacSat-2 20 Jan 18:05:53 18:09:33 40° 262° (W) 18:13:13 437.200
XW-2C 20 Jan 18:08:29 18:12:07 40° 262° (W) 18:15:46 145.795 - 145.815
Oscar 11 20 Jan 18:19:18 18:22:57 27° 52° (NE) 18:26:36 .
SEEDS 20 Jan 18:22:33 18:26:46 76° 69° (ENE) 18:30:59 437.485
PCSat 20 Jan 18:24:23 18:29:44 59° 226° (SW) 18:35:03 145.827
CUTE-I 20 Jan 18:25:10 18:30:16 45° 261° (W) 18:35:23 437.470
CUTE 1.7 + AOD 2 20 Jan 18:34:39 18:38:54 65° 257° (WSW) 18:43:09 437.475
BEESAT 3 20 Jan 18:38:19 18:41:24 22° 233° (SW) 18:44:28 437.485
ITUPSAT 1 20 Jan 18:42:11 18:46:10 26° 313° (NW) 18:50:08 437.325
CUBEBUG 2 20 Jan 18:43:43 18:48:12 77° 253° (WSW) 18:52:54 437.445
KAITUO 1B 20 Jan 18:44:25 18:47:38 26° 267° (W) 18:50:52 145.475/437.950
XW-2F 20 Jan 18:46:00 18:49:03 22° 269° (W) 18:52:07 145.980 - 146.000
DELFI C3 20 Jan 18:46:32 18:48:41 15° 43° (NE) 18:50:52 145.870
UWE-3 20 Jan 18:49:30 18:54:02 83° 72° (ENE) 18:58:42 435.000/436.395/437.385
STRAND 1 20 Jan 18:53:43 18:57:16 18° 83° (E) 19:00:48 437.568
XW-2D 20 Jan 18:56:00 18:58:42 18° 273° (W) 19:01:25 145.860 - 145.880
NUDT-PHONESAT 20 Jan 18:56:09 18:59:11 23° 269° (W) 19:02:12 437.300
AO-85 20 Jan 19:06:20 19:10:57 80° 208° (SSW) 19:15:58 145.980
KKS-1 20 Jan 19:08:59 19:13:26 67° 294° (WNW) 19:17:52 437.445
ZACube-1 20 Jan 19:13:43 19:18:15 80° 70° (ENE) 19:22:53 437.345
XW-2B 20 Jan 19:14:27 19:16:31 14° 276° (W) 19:18:36 145.730 - 145.750
MOZHAYETS 4 20 Jan 19:16:30 19:18:47 14° 327° (NNW) 19:21:04
CUBESAT XI-V 20 Jan 19:18:13 19:21:49 22° 314° (NW) 19:25:22 437.345
XW-2A 20 Jan 19:19:03 19:22:29 79° 251° (WSW) 19:25:57 145.665 - 145.685
AO-73 20 Jan 19:20:38 19:25:10 82° 70° (ENE) 19:29:47 145.935
BEESAT 20 Jan 19:22:26 19:25:37 18° 322° (NW) 19:28:47 436.000
STARS 20 Jan 19:25:29 19:29:56 89° 118° (ESE) 19:34:23 437.465
BEESAT 2 20 Jan 19:25:30 19:28:51 25° 232° (SW) 19:32:09 435.950
FO-29 20 Jan 19:26:21 19:29:45 17° 80° (E) 19:33:04 435.910
Max Valier Satellite 20 Jan 19:27:46 19:30:24 19° 50° (NE) 19:33:03 145.860
HO-68 20 Jan 19:28:34 19:35:13 40° 265° (W) 19:41:54 435.675
RS-15 20 Jan 19:39:25 19:47:37 23° 262° (W) 19:55:36 29.354- 29.394
AAUSAT CUBESAT 2 20 Jan 19:40:36 19:44:39 52° 259° (W) 19:48:43 437.432
NO-84 20 Jan 19:41:04 19:42:42 14° 161° (SSE) 19:44:19 435.350 FM
EO-88 20 Jan 19:46:59 19:49:37 19° 51° (NE) 19:52:16 145.990 - 145.960
Oscar 11 20 Jan 19:54:22 19:58:45 79° 252° (WSW) 20:03:08 .
SEEDS 20 Jan 19:59:31 20:02:55 23° 270° (W) 20:06:19 437.485
PCSat 20 Jan 20:08:27 20:12:13 19° 249° (WSW) 20:15:59 145.827
CUTE-I 20 Jan 20:09:38 20:11:44 12° 284° (WNW) 20:13:51 437.470
CUTE 1.7 + AOD 2 20 Jan 20:13:10 20:15:35 15° 278° (W) 20:17:59 437.475
DELFI C3 20 Jan 20:18:54 20:22:42 51° 64° (ENE) 20:26:31 145.870
ITUPSAT 1 20 Jan 20:20:57 20:22:39 12° 336° (NNW) 20:24:20 437.325
CUBEBUG 2 20 Jan 20:22:30 20:25:38 18° 276° (W) 20:28:51 437.445
UWE-3 20 Jan 20:27:24 20:31:04 24° 272° (W) 20:34:49 435.000/436.395/437.385
STRAND 1 20 Jan 20:32:16 20:37:25 69° 106° (ESE) 20:42:34 437.568
ESTCUBE 1 20 Jan 20:32:37 20:35:31 17° 40° (NE) 20:38:26 437.505/2401.250
KKS-1 20 Jan 20:46:07 20:49:22 20° 316° (NW) 20:52:38 437.445
AO-85 20 Jan 20:46:51 20:51:03 32° 230° (SW) 20:55:30 145.980
ZACube-1 20 Jan 20:51:22 20:55:04 24° 272° (W) 20:58:50 437.345
XW-2A 20 Jan 20:53:58 20:55:46 14° 274° (W) 20:57:35 145.665 - 145.685
AO-73 20 Jan 20:58:17 21:01:57 24° 272° (W) 21:05:40 145.935
TIGRISAT 20 Jan 20:59:34 21:02:09 14° 80° (E) 21:04:45 435.000
Max Valier Satellite 20 Jan 20:59:59 21:03:43 80° 72° (ENE) 21:07:30 145.860
YUBILEINY 20 Jan 21:00:21 21:05:05 16° 58° (ENE) 21:09:50 435.215
STARS 20 Jan 21:02:15 21:05:52 25° 311° (NW) 21:09:28 437.465
LO-87 20 Jan 21:06:38 21:09:18 20° 52° (NE) 21:11:59 145.935 - 145.965
FO-29 20 Jan 21:10:44 21:16:07 66° 104° (ESE) 21:21:17 435.910
UNISAT 6 20 Jan 21:14:23 21:17:45 19° 85° (E) 21:21:06 437.425
NO-84 20 Jan 21:17:01 21:19:08 19° 182° (S) 21:21:12 435.350 FM
EO-88 20 Jan 21:19:08 21:22:48 86° 72° (ENE) 21:26:30 145.990 - 145.960
AAUSAT CUBESAT 2 20 Jan 21:19:42 21:21:05 11° 281° (W) 21:22:28 437.432
HO-68 20 Jan 21:22:29 21:25:14 12° 291° (WNW) 21:27:59 435.675
Oscar 11 20 Jan 21:32:36 21:35:37 18° 275° (W) 21:38:38 .
DELFI C3 20 Jan 21:54:10 21:57:39 30° 266° (W) 22:01:10 145.870
SPROUT 20 Jan 22:05:52 22:09:14 23° 49° (NE) 22:12:36 437.525
ESTCUBE 1 20 Jan 22:07:08 22:11:31 52° 62° (ENE) 22:15:56 437.505/2401.250
VELOX 1 20 Jan 22:08:38 22:11:45 19° 43° (NE) 22:14:52 145.980
STRAND 1 20 Jan 22:11:44 22:16:25 36° 307° (NW) 22:21:05 437.568
DX 1 20 Jan 22:26:57 22:28:38 12° 32° (NNE) 22:30:20 434.975-435.025
TIGRISAT 20 Jan 22:35:11 22:39:50 58° 102° (ESE) 22:44:29 435.000
Max Valier Satellite 20 Jan 22:35:16 22:38:01 19° 271° (W) 22:40:47 145.860
LO-87 20 Jan 22:38:40 22:42:17 87° 250° (WSW) 22:45:55 145.935 - 145.965
STARS 20 Jan 22:40:22 22:40:56 10° 334° (NNW) 22:41:30 437.465
UNISAT 6 20 Jan 22:50:29 22:55:13 77° 106° (ESE) 22:59:57 437.425
YUBILEINY 20 Jan 22:51:26 22:59:35 44° 84° (E) 23:07:42 435.215
NO-84 20 Jan 22:54:10 22:55:30 13° 202° (SSW) 22:56:51 435.350 FM
EO-88 20 Jan 22:54:26 22:56:57 17° 272° (W) 22:59:29 145.990 - 145.960
FO-29 20 Jan 22:56:10 23:01:06 37° 309° (NW) 23:05:49 435.910
PRISM 20 Jan 23:03:32 23:07:13 32° 96° (E) 23:10:54 437.425
POLYITAN 1 20 Jan 23:14:26 23:16:20 13° 80° (E) 23:18:12 437.675
NANOSAT C BR1 20 Jan 23:29:44 23:32:10 15° 83° (E) 23:34:35 145.865
ITUPSAT 1 20 Jan 23:32:50 23:34:32 12° 24° (NNE) 23:36:13 437.325
AIST 2D 20 Jan 23:37:42 23:40:57 35° 97° (E) 23:44:10 435.315
nSIGHT-1 20 Jan 23:38:34 23:39:47 12° 171° (S) 23:41:01 .
SPROUT 20 Jan 23:40:22 23:44:39 85° 67° (ENE) 23:48:58 437.525
VELOX 1 20 Jan 23:43:12 23:47:32 64° 65° (ENE) 23:51:55 145.980
QB50P2 20 Jan 23:43:15 23:46:34 21° 88° (E) 23:49:52 145.880/145.840
ESTCUBE 1 20 Jan 23:44:18 23:48:31 37° 264° (W) 23:52:46 437.505/2401.250
UKube-1 20 Jan 23:48:46 23:52:06 22° 47° (NE) 23:55:27 .
STRAND 1 20 Jan 23:51:31 23:54:25 15° 330° (NNW) 23:57:19 437.568
ISS 20 Jan 23:51:36 23:52:59 12° 170° (S) 23:54:23 437.550
DX 1 20 Jan 23:59:53 00:03:45 32° 54° (NE) 00:07:38 434.975-435.025
MOZHAYETS 4 21 Jan 00:01:59 00:04:48 16° 38° (NE) 00:07:36
O/OREOS (USA 219) 21 Jan 00:05:06 00:06:32 11° 97° (E) 00:07:58 437.305
CUBESAT XI-V 21 Jan 00:08:00 00:08:35 10° 25° (NNE) 00:09:10 437.345
BEESAT 21 Jan 00:10:49 00:13:38 16° 34° (NNE) 00:16:27 436.000
50 SAT 21 Jan 00:12:01 00:14:37 25° 57° (ENE) 00:17:15 437.505
TIGRISAT 21 Jan 00:12:06 00:16:25 37° 303° (WNW) 00:20:45 435.000
DUCHIFAT 1 21 Jan 00:12:47 00:16:24 26° 91° (E) 00:20:00 145.980
EO-79 21 Jan 00:13:56 00:17:48 31° 94° (E) 00:21:38 145.935-145.965
LO-87 21 Jan 00:14:00 00:16:15 16° 274° (W) 00:18:31 145.935 - 145.965
UNISAT 6 21 Jan 00:27:32 00:31:37 30° 308° (NW) 00:35:42 437.425
Oscar 19 21 Jan 00:31:49 00:34:00 12° 77° (ENE) 00:36:11 437.125/150
PRISM 21 Jan 00:38:45 00:42:43 52° 297° (WNW) 00:46:41 437.425
AO-91 21 Jan 00:41:37 00:43:45 13° 83° (E) 00:45:58 145.960
FO-29 21 Jan 00:41:44 00:44:55 16° 334° (NNW) 00:48:00 435.910
YUBILEINY 21 Jan 00:47:10 00:56:01 75° 290° (WNW) 01:04:52 435.215
POLYITAN 1 21 Jan 00:48:49 00:53:05 55° 102° (ESE) 00:57:19 437.675
NANOSAT C BR1 21 Jan 01:04:26 01:08:43 65° 104° (ESE) 01:12:58 145.865
ITUPSAT 1 21 Jan 01:07:02 01:11:00 26° 47° (NE) 01:15:00 437.325
AIST 2D 21 Jan 01:10:54 01:14:10 37° 298° (WNW) 01:17:24 435.315
nSIGHT-1 21 Jan 01:13:55 01:14:58 11° 191° (SSW) 01:16:01 .
BUGSAT 1 21 Jan 01:13:58 01:17:36 27° 92° (E) 01:21:14 437.445
SPROUT 21 Jan 01:17:49 01:21:06 21° 272° (W) 01:24:25 437.525
QB50P2 21 Jan 01:18:36 01:22:56 86° 290° (WNW) 01:27:14 145.880/145.840
VELOX 1 21 Jan 01:20:30 01:24:20 29° 267° (W) 01:28:12 145.980
UKube-1 21 Jan 01:23:19 01:27:38 81° 68° (ENE) 01:31:58 .
ISS 21 Jan 01:27:08 01:28:29 12° 190° (S) 01:29:50 437.550
KKS-1 21 Jan 01:33:05 01:33:53 10° 26° (NNE) 01:34:40 437.445
DX 1 21 Jan 01:35:28 01:39:46 62° 256° (WSW) 01:44:06 434.975-435.025
MOZHAYETS 4 21 Jan 01:36:36 01:41:02 45° 60° (ENE) 01:45:29
O/OREOS (USA 219) 21 Jan 01:40:37 01:44:55 46° 119° (ESE) 01:49:14 437.305
CUBESAT XI-V 21 Jan 01:40:50 01:44:34 24° 48° (NE) 01:48:17 437.345
50 SAT 21 Jan 01:43:12 01:46:12 46° 258° (WSW) 01:49:14 437.505
BEESAT 21 Jan 01:45:55 01:50:24 41° 56° (NE) 01:54:54 436.000
DUCHIFAT 1 21 Jan 01:48:12 01:52:28 70° 293° (WNW) 01:56:43 145.980
EO-79 21 Jan 01:49:35 01:53:49 57° 296° (WNW) 01:58:02 145.935-145.965
TIGRISAT 21 Jan 01:49:38 01:52:02 14° 325° (NW) 01:54:27 435.000
Gurwin Techsat 1B 21 Jan 01:56:13 02:01:03 33° 93° (E) 02:05:51 435.225
UNISAT 6 21 Jan 02:05:21 02:07:06 12° 330° (NNW) 02:08:52 437.425
Oscar 19 21 Jan 02:09:39 02:14:41 47° 100° (E) 02:19:40 437.125/150
PRISM 21 Jan 02:14:49 02:17:15 16° 318° (NW) 02:19:41 437.425
AO-91 21 Jan 02:16:53 02:21:00 58° 103° (ESE) 02:25:34 145.960
POLYITAN 1 21 Jan 02:24:50 02:28:45 35° 303° (WNW) 02:32:40 437.675
FO-29 21 Jan 02:26:20 02:28:01 11° 0° (N) 02:29:39 435.910
NANOSAT C BR1 21 Jan 02:40:26 02:44:12 30° 306° (NW) 02:47:57 145.865
ITUPSAT 1 21 Jan 02:43:33 02:48:22 86° 66° (ENE) 02:53:14 437.325
AIST 2D 21 Jan 02:46:05 02:46:28 10° 319° (NW) 02:46:52 435.315
YUBILEINY 21 Jan 02:46:38 02:54:28 34° 319° (NW) 03:02:16 435.215
BUGSAT 1 21 Jan 02:49:06 02:53:19 67° 293° (WNW) 02:57:33 437.445
QB50P2 21 Jan 02:54:51 02:58:15 23° 311° (NW) 03:01:39 145.880/145.840
UKube-1 21 Jan 03:00:44 03:04:10 23° 270° (W) 03:07:37 .
KKS-1 21 Jan 03:05:31 03:09:10 25° 49° (NE) 03:12:49 437.445
STRAND 1 21 Jan 03:07:12 03:09:00 12° 19° (NNE) 03:10:45 437.568
AO-7 21 Jan 03:12:22 03:19:39 31° 89° (E) 03:26:51 .
MOZHAYETS 4 21 Jan 03:13:47 03:18:15 45° 261° (W) 03:22:46
DX 1 21 Jan 03:14:32 03:16:51 14° 277° (W) 03:19:11 434.975-435.025
ITAMSAT 1 21 Jan 03:16:33 03:20:08 18° 84° (E) 03:23:42 435.822/435.867
CUBESAT XI-V 21 Jan 03:16:43 03:21:25 81° 71° (ENE) 03:26:08 437.345
O/OREOS (USA 219) 21 Jan 03:19:57 03:24:22 53° 322° (NW) 03:28:48 437.305
STARS 21 Jan 03:21:38 03:24:47 20° 44° (NE) 03:27:58 437.465
BEESAT 21 Jan 03:23:27 03:28:08 53° 258° (WSW) 03:32:52 436.000
DUCHIFAT 1 21 Jan 03:24:27 03:27:32 20° 314° (NW) 03:30:37 145.980
EO-79 21 Jan 03:26:02 03:28:53 17° 317° (NW) 03:31:41 145.935-145.965
Gurwin Techsat 1B 21 Jan 03:36:07 03:41:26 70° 295° (WNW) 03:46:44 435.225
Oscar 19 21 Jan 03:49:06 03:54:08 50° 301° (WNW) 03:59:06 437.125/150
AO-91 21 Jan 03:53:41 03:57:22 33° 302° (WNW) 04:01:25 145.960
POLYITAN 1 21 Jan 04:01:42 04:03:30 12° 325° (NW) 04:05:18 437.675
FO-29 21 Jan 04:07:43 04:11:07 16° 26° (NNE) 04:14:22 435.910
NANOSAT C BR1 21 Jan 04:17:32 04:18:47 11° 328° (NNW) 04:20:03 145.865
ITUPSAT 1 21 Jan 04:22:56 04:26:49 24° 271° (W) 04:30:44 437.325
BUGSAT 1 21 Jan 04:25:04 04:28:04 19° 315° (NW) 04:31:04 437.445
KKS-1 21 Jan 04:40:52 04:45:19 88° 243° (WSW) 04:49:48 437.445
STRAND 1 21 Jan 04:42:39 04:46:39 24° 43° (NE) 04:50:41 437.568
YUBILEINY 21 Jan 04:48:17 04:54:39 21° 350° (N) 05:01:01 435.215
M-CUBED/EXP-1 PRIME 21 Jan 04:51:28 04:52:52 12° 92° (E) 04:54:13 437.505
DOVE 4 21 Jan 04:53:39 04:57:23 29° 93° (E) 05:01:13 437.250
MOZHAYETS 4 21 Jan 04:55:20 04:56:38 11° 283° (WNW) 04:57:56
ITAMSAT 1 21 Jan 04:55:23 05:00:35 68° 106° (ESE) 05:05:47 435.822/435.867
CUBESAT XI-V 21 Jan 04:55:30 04:59:21 25° 271° (W) 05:03:12 437.345
STARS 21 Jan 04:56:10 05:00:29 66° 66° (ENE) 05:04:53 437.465
O/OREOS (USA 219) 21 Jan 05:00:47 05:04:39 27° 346° (NNW) 05:08:30 437.305
BEESAT 21 Jan 05:04:40 05:07:01 13° 280° (W) 05:09:24 436.000
AO-7 21 Jan 05:05:15 05:13:43 80° 113° (ESE) 05:22:07 .
Gurwin Techsat 1B 21 Jan 05:16:29 05:20:43 25° 318° (NW) 05:24:57 435.225
LilacSat-2 21 Jan 05:28:46 05:30:47 14° 84° (E) 05:32:46 437.200
Oscar 19 21 Jan 05:28:55 05:32:31 19° 324° (NW) 05:36:06 437.125/150
XW-2C 21 Jan 05:30:43 05:32:38 13° 83° (E) 05:34:32 145.795 - 145.815
AO-91 21 Jan 05:31:43 05:32:55 11° 323° (NW) 05:34:10 145.960
FO-29 21 Jan 05:49:25 05:54:56 35° 50° (NE) 05:59:59 435.910
KAITUO 1B 21 Jan 06:04:04 06:06:44 18° 88° (E) 06:09:22 145.475/437.950
SO-50 21 Jan 06:05:54 06:09:08 19° 122° (ESE) 06:12:24 436.795
XW-2F 21 Jan 06:06:06 06:09:09 23° 91° (E) 06:12:10 145.980 - 146.000
CUTE 1.7 + AOD 2 21 Jan 06:09:30 06:11:30 13° 80° (E) 06:13:29 437.475
NUDT-PHONESAT 21 Jan 06:14:24 06:17:16 21° 90° (E) 06:20:07 437.300
XW-2D 21 Jan 06:15:54 06:19:16 29° 94° (E) 06:22:35 145.860 - 145.880
KKS-1 21 Jan 06:19:12 06:22:31 20° 272° (W) 06:25:51 437.445
STRAND 1 21 Jan 06:20:06 06:25:11 70° 65° (ENE) 06:30:19 437.568
CUBEBUG 2 21 Jan 06:24:04 06:26:46 15° 80° (E) 06:29:28 437.445
M-CUBED/EXP-1 PRIME 21 Jan 06:24:30 06:28:03 67° 114° (ESE) 06:31:23 437.505
UWE-3 21 Jan 06:29:53 06:31:05 11° 75° (ENE) 06:32:17 435.000/436.395/437.385
CUTE-I 21 Jan 06:30:23 06:35:16 34° 94° (E) 06:40:06 437.470
DOVE 4 21 Jan 06:31:14 06:35:25 61° 294° (WNW) 06:39:45 437.250
STARS 21 Jan 06:33:26 06:37:13 28° 267° (W) 06:41:02 437.465
XW-2B 21 Jan 06:33:26 06:37:01 38° 98° (E) 06:40:33 145.730 - 145.750
TIGRISAT 21 Jan 06:34:05 06:36:36 15° 36° (NE) 06:39:08 435.000
ITAMSAT 1 21 Jan 06:35:07 06:39:52 37° 308° (NW) 06:44:37 435.822/435.867
O/OREOS (USA 219) 21 Jan 06:41:29 06:45:18 26° 11° (N) 06:49:06 437.305
HO-68 21 Jan 06:42:59 06:49:11 30° 89° (E) 06:55:20 435.675
YUBILEINY 21 Jan 06:48:32 06:55:24 24° 23° (NNE) 07:02:12 435.215
UNISAT 6 21 Jan 06:48:45 06:51:45 18° 40° (NE) 06:54:48 437.425
Gurwin Techsat 1B 21 Jan 06:56:57 06:59:08 13° 342° (NNW) 07:01:19 435.225
AO-7 21 Jan 06:58:15 07:06:11 49° 319° (NW) 07:14:06 .
LilacSat-2 21 Jan 07:01:57 07:05:47 70° 105° (ESE) 07:09:34 437.200
XW-2C 21 Jan 07:03:45 07:07:33 68° 105° (ESE) 07:11:18 145.795 - 145.815
Oscar 19 21 Jan 07:08:55 07:10:08 11° 348° (NNW) 07:11:22 437.125/150
AAUSAT CUBESAT 2 21 Jan 07:12:14 07:14:32 14° 83° (E) 07:16:49 437.432
SEEDS 21 Jan 07:30:53 07:34:43 33° 95° (E) 07:38:30 437.485
Oscar 11 21 Jan 07:32:11 07:33:35 11° 78° (ENE) 07:34:59 .
FO-29 21 Jan 07:33:21 07:39:47 81° 250° (WSW) 07:45:30 435.910
KAITUO 1B 21 Jan 07:37:28 07:41:13 82° 289° (WNW) 07:44:55 145.475/437.950
XW-2F 21 Jan 07:39:52 07:43:37 66° 292° (WNW) 07:47:19 145.980 - 146.000
CUTE 1.7 + AOD 2 21 Jan 07:44:04 07:48:17 58° 103° (ESE) 07:52:26 437.475
SO-50 21 Jan 07:44:24 07:48:51 58° 144° (SE) 07:53:25 436.795
NUDT-PHONESAT 21 Jan 07:47:48 07:51:31 70° 291° (WNW) 07:55:10 437.300
XW-2D 21 Jan 07:49:57 07:53:39 51° 295° (WNW) 07:57:18 145.860 - 145.880
M-CUBED/EXP-1 PRIME 21 Jan 07:59:13 08:02:13 25° 316° (NW) 08:05:04 437.505
CUBEBUG 2 21 Jan 07:59:40 08:04:22 59° 102° (ESE) 08:09:05 437.445
STRAND 1 21 Jan 08:00:15 08:04:49 32° 267° (W) 08:09:25 437.568
XW-2A 21 Jan 08:02:32 08:05:22 24° 93° (E) 08:08:11 145.665 - 145.685
RS-15 21 Jan 08:03:12 08:13:25 33° 108° (ESE) 08:23:25 29.354- 29.394
UWE-3 21 Jan 08:04:16 08:08:46 44° 97° (E) 08:13:15 435.000/436.395/437.385
XW-2B 21 Jan 08:07:40 08:11:14 39° 299° (WNW) 08:14:46 145.730 - 145.750
TIGRISAT 21 Jan 08:08:02 08:12:16 41° 58° (ENE) 08:16:37 435.000
DOVE 4 21 Jan 08:09:40 08:12:29 18° 315° (NW) 08:15:21 437.250
CUTE-I 21 Jan 08:10:25 08:15:44 68° 296° (WNW) 08:21:01 437.470
ITAMSAT 1 21 Jan 08:15:07 08:18:11 16° 331° (NNW) 08:21:15 435.822/435.867
O/OREOS (USA 219) 21 Jan 08:21:17 08:25:40 47° 36° (NE) 08:30:01 437.305
UNISAT 6 21 Jan 08:23:14 08:27:37 53° 63° (ENE) 08:32:09 437.425
ZACube-1 21 Jan 08:27:07 08:31:30 41° 97° (E) 08:35:48 437.345
PRISM 21 Jan 08:28:39 08:31:55 24° 50° (NE) 08:35:12 437.425
HO-68 21 Jan 08:30:42 08:37:56 85° 113° (ESE) 08:45:08 435.675
AO-73 21 Jan 08:33:39 08:38:01 41° 97° (E) 08:42:19 145.935
Gurwin Techsat 1B 21 Jan 08:35:55 08:37:06 11° 6° (N) 08:38:17 435.225
LilacSat-2 21 Jan 08:36:38 08:39:46 25° 306° (NW) 08:42:53 437.200
XW-2C 21 Jan 08:38:19 08:41:27 25° 306° (NW) 08:44:34 145.795 - 145.815
POLYITAN 1 21 Jan 08:43:34 08:45:27 13° 35° (NE) 08:47:20 437.675
Oscar 19 21 Jan 08:46:12 08:47:28 11° 12° (NNE) 08:48:44 437.125/150
YUBILEINY 21 Jan 08:46:33 08:54:56 46° 54° (NE) 09:03:14 435.215
AAUSAT CUBESAT 2 21 Jan 08:46:40 08:50:47 67° 104° (ESE) 08:54:53 437.432
AIST 2D 21 Jan 08:50:14 08:52:27 16° 49° (NE) 08:54:41 435.315
AO-7 21 Jan 08:50:31 08:57:29 31° 345° (NNW) 09:04:25 .
NANOSAT C BR1 21 Jan 08:58:22 09:00:32 14° 38° (NE) 09:02:43 145.865
SEEDS 21 Jan 09:06:32 09:10:37 51° 296° (WNW) 09:14:39 437.485
Oscar 11 21 Jan 09:06:33 09:10:48 49° 100° (E) 09:15:01 .
QB50P2 21 Jan 09:11:56 09:14:49 18° 43° (NE) 09:17:41 145.880/145.840
KAITUO 1B 21 Jan 09:12:04 09:14:42 19° 310° (NW) 09:17:19 145.475/437.950
XW-2F 21 Jan 09:14:44 09:17:07 16° 313° (NW) 09:19:30 145.980 - 146.000
DELFI C3 21 Jan 09:19:32 09:22:27 20° 88° (E) 09:25:21 145.870
CUTE 1.7 + AOD 2 21 Jan 09:20:10 09:23:57 32° 304° (WNW) 09:27:43 437.475
PCSat 21 Jan 09:20:27 09:22:08 11° 103° (ESE) 09:23:50 145.827
FO-29 21 Jan 09:20:39 09:25:43 24° 273° (W) 09:30:23 435.910
NUDT-PHONESAT 21 Jan 09:22:22 09:24:47 17° 312° (NW) 09:27:11 437.300
SO-50 21 Jan 09:24:46 09:29:20 74° 347° (NNW) 09:34:00 436.795
XW-2D 21 Jan 09:25:06 09:27:05 14° 317° (NW) 09:29:03 145.860 - 145.880
M-CUBED/EXP-1 PRIME 21 Jan 09:34:52 09:35:37 11° 339° (NNW) 09:36:21 437.505
XW-2A 21 Jan 09:34:59 09:38:19 51° 294° (WNW) 09:41:35 145.665 - 145.685
CUBEBUG 2 21 Jan 09:36:30 09:40:51 37° 303° (WNW) 09:45:14 437.445
DUCHIFAT 1 21 Jan 09:40:27 09:43:34 20° 46° (NE) 09:46:42 145.980
UWE-3 21 Jan 09:40:48 09:45:18 47° 299° (WNW) 09:49:47 435.000/436.395/437.385
EO-79 21 Jan 09:41:55 09:45:18 23° 49° (NE) 09:48:43 145.935-145.965
XW-2B 21 Jan 09:43:11 09:44:32 12° 320° (NW) 09:45:52 145.730 - 145.750
TIGRISAT 21 Jan 09:44:33 09:48:56 50° 260° (W) 09:53:28 435.000
CUTE-I 21 Jan 09:50:54 09:55:05 24° 319° (NW) 09:59:17 437.470
Max Valier Satellite 21 Jan 09:52:50 09:56:00 25° 92° (E) 09:59:07 145.860
ITAMSAT 1 21 Jan 09:55:00 09:55:50 10° 355° (N) 09:56:40 435.822/435.867
UNISAT 6 21 Jan 10:00:20 10:04:32 37° 265° (W) 10:08:51 437.425
O/OREOS (USA 219) 21 Jan 10:00:49 10:05:12 54° 239° (WSW) 10:09:34 437.305
PRISM 21 Jan 10:02:44 10:06:49 84° 253° (WSW) 10:10:55 437.425
ZACube-1 21 Jan 10:03:27 10:07:54 49° 298° (WNW) 10:12:18 437.345
AO-73 21 Jan 10:09:56 10:14:22 48° 298° (WNW) 10:18:43 145.935
EO-88 21 Jan 10:10:28 10:13:34 25° 93° (E) 10:16:39 145.990 - 145.960
Gurwin Techsat 1B 21 Jan 10:11:54 10:15:13 17° 31° (NNE) 10:18:32 435.225
RS-15 21 Jan 10:11:56 10:24:04 69° 136° (SE) 10:35:49 29.354- 29.394
BEESAT 3 21 Jan 10:14:16 10:16:50 17° 122° (ESE) 10:19:23 437.485
POLYITAN 1 21 Jan 10:16:18 10:20:13 36° 57° (ENE) 10:24:10 437.675
HO-68 21 Jan 10:18:41 10:25:16 41° 316° (NW) 10:31:49 435.675
Oscar 19 21 Jan 10:21:28 10:25:06 20° 36° (NE) 10:28:44 437.125/150
AIST 2D 21 Jan 10:21:34 10:25:05 73° 69° (ENE) 10:28:37 435.315
AAUSAT CUBESAT 2 21 Jan 10:22:27 10:26:00 28° 305° (NW) 10:29:30 437.432
NANOSAT C BR1 21 Jan 10:31:20 10:35:19 41° 59° (ENE) 10:39:21 145.865
BUGSAT 1 21 Jan 10:39:51 10:42:55 20° 46° (NE) 10:46:00 437.445
AO-7 21 Jan 10:41:22 10:48:15 30° 12° (NNE) 10:55:09 .
Oscar 11 21 Jan 10:42:52 10:46:55 38° 301° (WNW) 10:50:55 .
SEEDS 21 Jan 10:43:02 10:45:31 15° 318° (NW) 10:47:59 437.485
YUBILEINY 21 Jan 10:43:46 10:52:33 77° 261° (W) 11:01:13 435.215
QB50P2 21 Jan 10:45:42 10:49:54 59° 65° (ENE) 10:54:08 145.880/145.840
DELFI C3 21 Jan 10:53:45 10:57:42 82° 289° (WNW) 11:01:38 145.870
CUTE 1.7 + AOD 2 21 Jan 10:57:23 10:58:42 11° 326° (NW) 11:00:01 437.475
PCSat 21 Jan 10:59:11 11:04:11 39° 125° (SE) 11:09:12 145.827
BEESAT 2 21 Jan 11:03:39 11:06:06 16° 120° (ESE) 11:08:34 435.950
SO-50 21 Jan 11:05:31 11:10:08 72° 11° (N) 11:14:50 436.795
XW-2A 21 Jan 11:08:51 11:10:19 12° 315° (NW) 11:11:47 145.665 - 145.685
CUBEBUG 2 21 Jan 11:13:59 11:16:24 14° 325° (NW) 11:18:51 437.445
DUCHIFAT 1 21 Jan 11:14:27 11:18:40 73° 68° (ENE) 11:22:56 145.980
EO-79 21 Jan 11:16:22 11:20:38 89° 52° (NE) 11:24:57 145.935-145.965
UWE-3 21 Jan 11:17:58 11:20:51 16° 321° (NW) 11:23:44 435.000/436.395/437.385
TIGRISAT 21 Jan 11:24:58 11:26:47 12° 282° (WNW) 11:28:36 435.000
ESTCUBE 1 21 Jan 11:25:15 11:29:00 25° 90° (E) 11:32:43 437.505/2401.250
Max Valier Satellite 21 Jan 11:26:24 11:30:06 58° 293° (WNW) 11:33:45 145.860
LO-87 21 Jan 11:27:58 11:31:07 27° 93° (E) 11:34:16 145.935 - 145.965
ITAMSAT 1 21 Jan 11:31:12 11:33:22 13° 20° (NNE) 11:35:32 435.822/435.867
CUTE-I 21 Jan 11:31:26 11:33:35 13° 342° (NNW) 11:35:44 437.470
PRISM 21 Jan 11:39:57 11:42:44 18° 273° (W) 11:45:31 437.425
ZACube-1 21 Jan 11:40:26 11:43:18 17° 320° (NW) 11:46:09 437.345
O/OREOS (USA 219) 21 Jan 11:41:32 11:43:42 13° 260° (W) 11:45:52 437.305
EO-88 21 Jan 11:43:53 11:47:28 55° 294° (WNW) 11:51:02 145.990 - 145.960
AO-73 21 Jan 11:46:53 11:49:42 16° 320° (NW) 11:52:29 145.935
Gurwin Techsat 1B 21 Jan 11:49:06 11:54:02 40° 53° (NE) 11:58:59 435.225
AO-91 21 Jan 11:49:15 11:52:25 32° 58° (ENE) 11:55:48 145.960
BEESAT 3 21 Jan 11:49:46 11:53:40 54° 143° (SE) 11:57:35 437.485
POLYITAN 1 21 Jan 11:51:45 11:55:55 52° 259° (WSW) 12:00:09 437.675
AIST 2D 21 Jan 11:56:04 11:58:39 19° 271° (W) 12:01:15 435.315
Oscar 19 21 Jan 11:58:29 12:03:30 51° 59° (ENE) 12:08:33 437.125/150
HO-68 21 Jan 12:06:10 12:11:30 23° 342° (NNW) 12:16:50 435.675
NANOSAT C BR1 21 Jan 12:07:00 12:11:04 44° 261° (W) 12:15:10 145.865
BUGSAT 1 21 Jan 12:13:35 12:17:42 74° 69° (ENE) 12:21:55 437.445
Oscar 11 21 Jan 12:20:01 12:22:03 13° 324° (NW) 12:24:06 .
QB50P2 21 Jan 12:22:13 12:25:59 30° 266° (W) 12:29:47 145.880/145.840
RS-15 21 Jan 12:24:16 12:36:37 83° 346° (NNW) 12:48:28 29.354- 29.394
DELFI C3 21 Jan 12:29:04 12:31:57 20° 311° (NW) 12:34:50 145.870
AO-7 21 Jan 12:31:38 12:39:27 46° 38° (NE) 12:47:16 .
BEESAT 2 21 Jan 12:39:08 12:43:04 52° 142° (SE) 12:47:02 435.950
M-CUBED/EXP-1 PRIME 21 Jan 12:40:17 12:41:36 11° 24° (NNE) 12:42:53 437.505
YUBILEINY 21 Jan 12:41:03 12:48:09 29° 287° (WNW) 12:55:12 435.215
PCSat 21 Jan 12:41:51 12:47:18 84° 329° (NNW) 12:52:48 145.827
SO-50 21 Jan 12:46:05 12:50:41 64° 214° (SSW) 12:55:21 436.795
SPROUT 21 Jan 12:50:40 12:54:41 37° 96° (E) 12:58:42 437.525
AO-85 21 Jan 12:51:04 12:54:22 23° 124° (SE) 12:57:53 145.980
DUCHIFAT 1 21 Jan 12:51:17 12:54:46 24° 269° (W) 12:58:17 145.980
EO-79 21 Jan 12:53:48 12:56:59 20° 272° (W) 13:00:12 145.935-145.965
VELOX 1 21 Jan 12:58:29 13:02:18 28° 93° (E) 13:06:06 145.980
Max Valier Satellite 21 Jan 13:01:06 13:03:15 15° 315° (NW) 13:05:23 145.860
LO-87 21 Jan 13:01:11 13:04:44 52° 295° (WNW) 13:08:18 145.935 - 145.965
ESTCUBE 1 21 Jan 13:01:46 13:06:18 77° 291° (WNW) 13:10:47 437.505/2401.250
ITAMSAT 1 21 Jan 13:07:10 13:11:22 26° 43° (NE) 13:15:34 435.822/435.867
CUTE-I 21 Jan 13:10:22 13:11:39 11° 7° (N) 13:12:56 437.470
DX 1 21 Jan 13:13:45 13:15:38 12° 81° (E) 13:17:31 434.975-435.025
EO-88 21 Jan 13:18:28 13:20:26 14° 315° (NW) 13:22:24 145.990 - 145.960
AO-91 21 Jan 13:25:34 13:28:53 42° 261° (W) 13:32:27 145.960
BEESAT 3 21 Jan 13:27:12 13:31:12 69° 346° (NNW) 13:35:11 437.485
Gurwin Techsat 1B 21 Jan 13:28:35 13:33:52 63° 256° (WSW) 13:39:11 435.225
POLYITAN 1 21 Jan 13:31:05 13:32:43 12° 280° (W) 13:34:21 437.675
Oscar 19 21 Jan 13:37:56 13:42:57 46° 261° (W) 13:48:00 437.125/150
BUGSAT 1 21 Jan 13:50:10 13:53:31 23° 270° (W) 13:56:56 437.445
HO-68 21 Jan 13:52:12 13:57:11 21° 8° (N) 14:02:11 435.675
M-CUBED/EXP-1 PRIME 21 Jan 14:11:38 14:15:05 28° 45° (NE) 14:18:19 437.505
BEESAT 2 21 Jan 14:16:43 14:20:47 72° 344° (NNW) 14:24:51 435.950
50 SAT 21 Jan 14:18:34 14:21:16 26° 96° (E) 14:23:58 437.505
AO-7 21 Jan 14:23:21 14:31:46 87° 244° (WSW) 14:40:14 .
PCSat 21 Jan 14:25:50 14:31:12 54° 353° (N) 14:36:33 145.827
SPROUT 21 Jan 14:26:34 14:30:44 49° 298° (WNW) 14:34:54 437.525
SO-50 21 Jan 14:26:54 14:30:31 23° 236° (SW) 14:34:11 436.795
AO-85 21 Jan 14:29:56 14:34:09 69° 148° (SSE) 14:38:45 145.980
DOVE 4 21 Jan 14:33:21 14:36:40 23° 50° (NE) 14:39:58 437.250
ITUPSAT 1 21 Jan 14:34:39 14:36:10 11° 77° (ENE) 14:37:41 437.325
VELOX 1 21 Jan 14:34:45 14:39:08 67° 294° (WNW) 14:43:30 145.980
UKube-1 21 Jan 14:35:16 14:39:09 32° 95° (E) 14:43:01 .
LO-87 21 Jan 14:35:35 14:37:27 14° 315° (NW) 14:39:18 145.935 - 145.965
ESTCUBE 1 21 Jan 14:39:05 14:42:34 22° 314° (NW) 14:46:01 437.505/2401.250
ITAMSAT 1 21 Jan 14:45:04 14:50:14 75° 66° (ENE) 14:55:27 435.822/435.867
CUTE-I 21 Jan 14:46:30 14:49:54 17° 31° (NNE) 14:53:18 437.470
DX 1 21 Jan 14:48:31 14:52:49 54° 103° (ESE) 14:57:05 434.975-435.025
LilacSat-2 21 Jan 14:49:42 14:50:18 10° 37° (NE) 14:50:53 437.200
